Regional Weather Roundup
Issued by NWS

Home | Current Version | Previous Version | Graphics & Text | Print | Product List | Glossary On
Versions: 1 2 3 4 5 6 7 8 9 10 11 12 13 14 15 16 17 18 19 20 21 22 23 24 25 26 27
000
ASUS45 KTFX 270410
RWRMT
MONTANA REGIONAL WEATHER ROUNDUP
NATIONAL WEATHER SERVICE GREAT FALLS MT
1000 PM MDT THU MAY 26 2016

NOTE: "FAIR" INDICATES FEW OR NO CLOUDS BELOW 12000 FEET WITH NO
SIGNIFICANT WEATHER AND/OR OBSTRUCTIONS TO VISIBILITY.

MTZ001>007-043-270500-
WEST OF THE DIVIDE

CITY           SKY/WX    TMP DP  RH WIND       PRES   REMARKS
KALISPELL      CLOUDY    52  51  97 N6        29.91S
MISSOULA       CLOUDY    53  49  86 W5        29.94S
BUTTE          CLOUDY    50  40  68 S5        29.98R
MULLAN PASS    MOCLDY    40  40 100 NW5       30.00R
ANACONDA         N/A     48  45  87 N6        29.97R
DEER LODGE       N/A     48  45  87 NW3       29.98R
EUREKA           N/A     57  46  67 SE10        N/A
HAMILTON         N/A     57  41  54 N7        29.93R
LIBBY            N/A     55  45  67 CALM      29.91R
$$

MTZ008-052>055-270500-
SOUTHWEST MONTANA

CITY           SKY/WX    TMP DP  RH WIND       PRES   REMARKS
BOZEMAN        CLEAR     51  43  74 E6        29.95R
DILLON         CLEAR     51  39  63 E12       29.95R
W YELLOWSTONE  CLOUDY    41  41 100 NW3       30.06R
ENNIS          CLOUDY    46  43  87 SE7       30.03R
$$

MTZ009-010-012-014-046-048-049-054-270500-
EAST SLOPES AND CENTRAL MONTANA

CITY           SKY/WX    TMP DP  RH WIND       PRES   REMARKS
CUT BANK       PTCLDY    50  47  89 S3        29.90S
GREAT FALLS    CLOUDY    53  44  71 N5        29.93F
MALMSTROM AFB  LGT RAIN  54  48  80 W7        29.93S
HELENA         CLOUDY    55  47  74 CALM      29.92R
CHOTEAU          N/A     50  48  93 N7        29.92R
$$

MTZ011-013-016-021-045-047-050-051-270500-
NORTH CENTRAL MONTANA

CITY           SKY/WX    TMP DP  RH WIND       PRES   REMARKS
HAVRE          CLOUDY    57  51  80 E7        29.90R
LEWISTOWN      CLEAR     52  43  71 S5        29.94R
N BAR RANCH      N/A     46  43  87 W5        29.97R
CHINOOK          N/A     55  50  82 E3        29.91R
$$

MTZ017>020-022>027-061-062-270500-
NORTHEAST MONTANA

CITY           SKY/WX    TMP DP  RH WIND       PRES   REMARKS
GLASGOW        CLOUDY    55  50  83 NE13      29.86R
JORDAN           N/A     54  49  83 W8        29.86R
SIDNEY         CLOUDY    56  51  84 N6        29.84R
WOLF POINT     CLOUDY    57  51  80 NE8       29.86R
$$

MTZ028>42-056>058-270500-
SOUTHCENTRAL AND SOUTHEAST MONTANA

CITY           SKY/WX    TMP DP  RH WIND       PRES   REMARKS
BAKER          CLEAR     49  44  83 W3        29.87R
BILLINGS       CLOUDY    55  44  66 E6        29.93R
LIVINGSTON     CLOUDY    48  41  76 SE3       29.94R
MILES CITY     PTCLDY    54  48  80 W6        29.87R
FORSYTH          N/A     57  46  67 W3        29.88R
$$

REGIONAL REPORTS...DAKOTAS

CITY           SKY/WX    TMP DP  RH WIND       PRES   REMARKS
WILLISTON      PTCLDY    53  48  83 N5        29.85R
MINOT          CLOUDY    57  52  83 NW5       29.83R
DICKINSON      CLOUDY    51  42  71 W3        29.84R
BEACH            N/A     50  50 100 SW6       29.89R
CROSBY           N/A     48  48 100 N6        29.88R
WATFORD CITY     N/A     48  48 100 E3        29.85R
BISMARCK       CLEAR     60  48  64 N12       29.83R
GRAND FORKS    PTCLDY    59  54  83 W6        29.79R
FARGO          MOCLDY    63  55  75 E3        29.76R
BUFFALO SD       N/A     54  42  64 N8        29.81R
RAPID CITY     MOCLDY    53  45  74 N7        29.87R
$$

REGIONAL REPORTS...WYOMING/IDAHO/WASHINGTON

CITY           SKY/WX    TMP DP  RH WIND       PRES   REMARKS
GILLETTE       CLEAR     43  38  82 W8        29.93R
SHERIDAN       PTCLDY    50  45  83 W6        29.93R
BUFFALO WY     CLOUDY    51  44  77 SW3       29.97R
CODY           CLEAR     52  37  58 W6        29.97S
YELLOWSTONE LA   N/A     35  33  92 E3        30.12S
IDAHO FALLS    CLOUDY    57  41  55 S8        29.94R
SALMON         CLOUDY    59  39  47 S7        29.87R
BOISE          MOCLDY    68  35  29 NW5       29.90R
SPOKANE        MOCLDY    59  41  51 S10       29.91S
$$

REGIONAL REPORTS...ALBERTA

CITY           SKY/WX    TMP DP  RH WIND       PRES   REMARKS
EDMONTON       MOCLDY    59  46  63 E6        29.78S
CALGARY        MOCLDY    55  45  67 SW5       29.80S
LETHBRIDGE     PTCLDY    54  46  76 S17       29.83R
MEDICINE HAT   MOCLDY    59  52  77 S6        29.85R
WATERTON GATE    N/A     50  39  66 SW9         N/A
MILK RIVER       N/A     52  45  76 SW8         N/A
$$

REGIONAL REPORTS...SASKATCHEWAN

CITY           SKY/WX    TMP DP  RH WIND       PRES   REMARKS
SWIFT CURRENT  CLEAR     52  48  87 S8        29.90R
REGINA         MOCLDY    52  50  93 W7        29.87R
SASKATOON      PTCLDY    61  48  63 SW7       29.86R
CYPRESS HILLS    N/A     46  43  87 S5          N/A
VAL MARIE        N/A     46  45  93 N8          N/A
ROCKGLEN         N/A     50  48  93 NE1         N/A
ASSINIBOIA       N/A     61  54  77 S6          N/A
$$




USA.gov is the U.S. government's official web portal to all federal, state and local government web resources and services.